Location: Erdweis
(48.5167°N, 15.3500°E)
Time: 07:03:06
(UTC+00:00)

USA 234 - Pass Details

Date: 18 September 2020
Orbit: 1102 x 1106 km, 123.0° (Epoch: 16 October)

Event Time Altitude Azimuth Distance (km) Brightness Sun altitude
Rises 23:40:44 0° 86° (E) 3,919 6.4 -39.0°
Reaches altitude 10° 23:43:18 10° 81° (E) 2,962 5.7 -38.9°
Maximum altitude 23:49:28 46° 11° (N) 1,449 4.1 -38.6°
Enters shadow 23:50:38 42° 343° (NNW) 1,533 4.2 -38.5°
Exits shadow 23:54:27 16° 305° (NW) 2,554 5.3 -38.3°
Drops below altitude 10° 23:55:38 10° 301° (WNW) 2,967 5.6 -38.3°
Sets 23:58:12 0° 295° (WNW) 3,926 6.2 -38.1°
